Погода в Яковлеве

Россия / Оренбургская область     54°14′57″N   53°01′44″E
темп.,
°C
ветер,
м/с
пор.,
м/с
влажн.,
%
обл.,
%
осадки,
мм/ч
давл.,
гПа
погр.,
м
27 июля, вт
вт2723:00+14зсз225421 0.0 102011
02:00+14зюз225587 0.0 102013
05:00+12зюз22645 0.0 101919
08:00+17з47564 0.0 1018252
11:00+22з673814 0.0 10171630
14:00+25зсз6831100 0.0 10153065
17:00+23зсз893970 0.0 10141897
20:00+21сз595095 0.0 10141135
28 июля, ср
ср2823:00+17зсз36645 0.0 1014174
02:00+13з228018 0.0 101513
05:00+11зсз22880 0.0 101420
08:00+15ссз34650 0.0 1015276
11:00+20ссз57383 0.0 10151754
14:00+22ссз56245 0.0 10142205
17:00+23ссз56225 0.0 10142528
20:00+21сз462864 0.0 1014465
29 июля, чт
чт2923:00+14сз22500 0.0 101410
02:00+12зюз11570 0.0 101410
05:00+11юз22585 0.0 101410
08:00+16ююз254491 0.0 1013179
11:00+23юз5732100 0.0 10121027
14:00+25зюз7835100 0.0 10101801
17:00+16ююз2894100 2.1 1010401
20:00+16ююз61295100 8.2 1008667
30 июля, пт
пт3023:00+16ю399785 12.2 1006389
02:00+15ююз3997100 0.4 1004292
05:00+14зюз3997100 0.4 1004236
08:00+16з5995100 0.0 1005427
11:00+19зсз688372 0.1 1006766
14:00+23зсз685694 0.1 10061443
17:00+26зсз684627 0.1 10072056
20:00+23зсз3658100 0.0 1007156
31 июля, сб
сб3123:00+21зсз22641 0.0 100815
02:00+18зюз22761 0.0 100911
05:00+17зюз11801 0.0 100911
08:00+21юз126962 0.0 1010139
11:00+25юз225460 0.0 1010680
14:00+28з334140 0.0 10101877
17:00+28зюз3437100 0.0 10092250
20:00+26ююв22505 0.0 100923